Temperature
1 1 1 1 1 2 2 2 2 2 2 2 2 2 2 2 2 3 3 3 3 3 2 2 2 2 2 2 2 1 1 1 1 1 1 1 1 1 1 1 1 1 1
1 1 1 1 1 1 1 1 2 2 2 2 2 2 2 2 2 2 2 2 2 2 2 2 1 1 1 1 1 1 1 1 1 1 1 1 0 0 0 0 -0 -0 -0
0 0 0 0 0 0 1 1 1 1 1 1 1 1 1 1 1 1 1 2 2 1 1 1 1 1 1 1 1 0 0 0 -0 -0 0 -0 -0 -0 -1 -1 -1 -1 -1
-0 -0 -0 -0 -0 -0 -0 0 0 1 1 1 1 0 1 1 1 1 1 1 1 1 1 0 0 0 0 0 -0 -0 -0 -1 -1 -1 -1 -1 -1 -1 -1 -1 -1 -1 -2
-1 -1 -1 -1 -1 -1 -1 -0 -0 -0 -0 -0 -0 -0 -0 -0 -0 -0 -0 -0 -0 -0 -0 -0 -0 -0 -0 -1 -1 -1 -1 -1 -1 -1 -2 -2 -2 -2 -2 -2 -2 -2 -2
-2 -2 -2 -1 -1 -1 -1 -1 -1 -1 -1 -1 -1 -1 -1 -1 -1 -1 -1 -1 -1 -1 -1 -1 -1 -1 -1 -1 -1 -2 -2 -2 -2 -2 -2 -2 -2 -3 -3 -3 -3 -3 -3
-2 -2 -2 -2 -2 -2 -2 -2 -2 -2 -2 -2 -2 -2 -1 -2 -2 -2 -2 -2 -2 -1 -1 -1 -2 -2 -2 -2 -2 -2 -2 -2 -2 -2 -2 -2 -3 -3 -3 -3 -4 -4 -4
-3 -3 -3 -2 -2 -2 -2 -2 -2 -2 -2 -2 -2 -2 -2 -2 -2 -3 -3 -2 -2 -2 -2 -2 -2 -2 -2 -3 -3 -3 -3 -3 -3 -3 -3 -3 -3 -4 -4 -4 -4 -4 -4
-3 -3 -3 -3 -3 -3 -3 -3 -3 -3 -3 -3 -3 -3 -3 -3 -3 -3 -3 -3 -3 -3 -3 -3 -3 -3 -3 -3 -4 -4 -4 -4 -4 -4 -4 -5 -5 -5 -5 -5 -5 -5 -5
-4 -4 -4 -4 -4 -3 -4 -4 -4 -4 -4 -4 -4 -4 -4 -4 -4 -4 -4 -4 -4 -4 -4 -4 -4 -4 -4 -4 -4 -5 -5 -5 -5 -5 -5 -5 -6 -6 -6 -6 -6 -6 -6
-5 -5 -5 -5 -5 -4 -4 -4 -4 -5 -5 -5 -5 -5 -4 -4 -5 -5 -5 -5 -5 -5 -5 -5 -5 -5 -5 -5 -5 -5 -5 -6 -6 -6 -6 -6 -6 -6 -6 -6 -7 -6 -6
-6 -5 -5 -5 -5 -5 -5 -5 -5 -5 -5 -5 -5 -5 -5 -5 -5 -5 -5 -5 -5 -6 -6 -6 -6 -6 -6 -6 -6 -6 -6 -6 -7 -7 -7 -7 -7 -7 -7 -7 -7 -7 -7
-6 -6 -6 -6 -6 -6 -6 -6 -6 -6 -6 -6 -6 -6 -6 -6 -6 -6 -6 -6 -6 -6 -6 -7 -7 -7 -7 -7 -7 -7 -7 -7 -7 -7 -8 -8 -8 -8 -8 -8 -8 -8 -8
-7 -7 -7 -7 -7 -7 -7 -7 -7 -7 -7 -7 -7 -7 -7 -7 -7 -7 -7 -7 -7 -7 -7 -7 -7 -7 -7 -7 -7 -8 -8 -8 -8 -8 -8 -8 -8 -8 -8 -8 -8 -8 -9
-8 -8 -7 -7 -7 -7 -7 -7 -7 -7 -7 -8 -8 -8 -8 -8 -8 -8 -7 -7 -7 -7 -8 -8 -8 -8 -8 -8 -8 -8 -8 -9 -9 -9 -9 -9 -9 -9 -9 -9 -9 -9 -9
-8 -8 -8 -8 -8 -8 -8 -8 -8 -8 -8 -8 -8 -8 -8 -8 -8 -8 -8 -8 -8 -8 -8 -8 -9 -9 -9 -9 -9 -9 -9 -9 -9 -10 -10 -10 -10 -10 -10 -10 -10 -10 -10
-9 -9 -9 -9 -9 -9 -9 -9 -9 -9 -9 -9 -9 -9 -9 -9 -9 -9 -9 -9 -9 -9 -9 -9 -9 -9 -9 -9 -10 -10 -10 -10 -10 -10 -10 -10 -10 -10 -10 -10 -11 -11 -10
-9 -10 -10 -10 -10 -9 -10 -10 -10 -10 -10 -10 -10 -10 -10 -10 -10 -10 -10 -10 -10 -10 -10 -10 -10 -10 -10 -10 -10 -10 -11 -11 -11 -11 -11 -11 -11 -11 -11 -11 -11 -11 -11
-10 -10 -10 -10 -10 -10 -10 -10 -10 -10 -10 -11 -11 -11 -11 -11 -11 -11 -11 -10 -10 -11 -11 -11 -11 -11 -11 -11 -11 -11 -11 -11 -11 -11 -11 -11 -11 -11 -12 -12 -12 -12 -12
-10 -10 -10 -11 -11 -11 -11 -11 -11 -11 -11 -11 -11 -11 -11 -11 -11 -11 -11 -11 -11 -11 -11 -11 -11 -11 -11 -11 -12 -12 -12 -12 -12 -12 -12 -12 -12 -12 -12 -12 -12 -13 -13
-11 -11 -11 -11 -11 -11 -11 -11 -11 -12 -12 -12 -12 -12 -12 -12 -12 -12 -12 -12 -12 -12 -12 -12 -12 -12 -12 -12 -12 -12 -12 -12 -12 -12 -12 -12 -12 -13 -13 -13 -13 -13 -13
-11 -11 -11 -11 -11 -12 -12 -12 -12 -12 -12 -12 -13 -13 -13 -13 -13 -13 -13 -13 -13 -13 -13 -13 -12 -12 -13 -13 -13 -13 -13 -13 -13 -13 -13 -13 -13 -13 -13 -13 -13 -13 -14
-11 -11 -12 -12 -12 -12 -12 -12 -12 -13 -13 -13 -13 -13 -13 -13 -13 -13 -13 -13 -13 -13 -13 -13 -13 -13 -13 -13 -13 -13 -13 -13 -13 -13 -13 -13 -13 -13 -14 -14 -14 -14 -14
-12 -12 -12 -12 -12 -13 -13 -13 -13 -13 -13 -13 -13 -13 -13 -13 -13 -14 -14 -14 -14 -14 -14 -14 -14 -14 -14 -14 -14 -14 -14 -14 -14 -14 -14 -14 -14 -14 -14 -14 -14 -14 -14
-12 -12 -12 -12 -13 -13 -13 -13 -13 -13 -13 -13 -14 -14 -14 -14 -14 -14 -14 -14 -14 -14 -14 -14 -14 -14 -14 -14 -14 -14 -14 -14 -14 -14 -14 -14 -14 -14 -14 -14 -14 -14 -15
-13 -13 -13 -13 -13 -13 -13 -13 -13 -14 -14 -14 -14 -14 -14 -14 -14 -14 -14 -14 -14 -14 -14 -14 -14 -14 -14 -14 -14 -14 -14 -14 -14 -15 -15 -15 -15 -15 -15 -15 -15 -15 -15
Wind_Speed
2 3 3 3 3 4 4 5 5 4 6 6 6 6 6 5 5 5 4 5 6 5 5 6 5 4 4 4 4 4 3 3 3 2 1 1 2 2 2 3 3 3 3
3 3 3 2 3 3 4 4 4 5 6 6 6 5 6 5 5 5 6 6 7 7 6 6 5 4 5 4 4 4 4 3 4 3 2 1 1 2 2 2 2 3 3
2 2 3 3 3 4 4 4 4 4 5 5 5 6 6 6 5 5 5 5 6 6 6 6 6 5 5 4 5 5 4 3 3 4 3 2 1 1 1 1 1 2 3
2 2 3 3 4 4 3 3 4 4 4 5 6 6 5 5 5 5 5 5 5 5 5 6 6 7 7 6 5 6 5 4 3 4 3 2 2 2 2 1 1 1 1
2 2 3 3 3 3 3 3 3 4 4 5 5 5 4 4 5 5 5 5 5 5 4 5 5 6 7 6 5 6 6 5 5 4 4 3 2 3 3 2 2 1 2
2 3 2 2 2 3 3 3 3 3 3 4 5 5 5 4 6 7 6 5 5 5 5 4 4 5 6 7 7 7 8 7 7 6 4 5 5 4 3 3 2 1 2
2 2 2 2 3 3 3 3 3 3 3 4 4 5 5 5 6 7 7 5 5 5 5 4 3 4 4 4 5 6 6 7 7 6 7 7 6 6 5 4 4 4 3
1 2 2 2 2 2 2 3 3 3 3 4 4 4 4 4 6 6 6 4 4 4 4 5 5 4 4 4 4 3 3 2 4 4 5 6 5 6 6 5 4 2 1
1 2 2 3 3 2 2 3 3 3 3 3 3 4 5 4 5 5 4 3 3 3 3 4 4 5 6 6 5 4 3 2 2 4 4 4 5 5 5 3 3 3 2
2 2 2 3 3 3 3 3 2 2 2 2 2 3 3 4 5 5 5 3 3 2 2 2 4 5 6 7 5 5 5 4 3 2 2 1 1 2 4 4 4 4 2
2 1 1 2 3 3 2 2 2 2 2 2 2 1 2 3 4 4 5 4 4 3 3 2 3 5 6 6 5 5 6 4 4 3 2 1 1 0 1 2 3 4 3
1 1 1 2 2 2 3 2 2 3 3 2 2 1 0 1 2 3 4 4 4 4 3 3 3 5 5 5 5 5 6 4 3 3 2 2 1 1 1 1 2 3 3
1 1 1 1 2 2 3 3 3 3 3 2 2 1 0 0 1 2 3 3 3 2 2 3 3 3 3 2 3 4 3 3 3 3 2 2 2 1 1 1 0 1 0
1 1 1 2 2 2 2 2 3 3 3 3 2 2 1 0 1 0 1 1 2 2 2 2 2 2 2 1 1 1 2 2 3 2 2 1 1 1 1 1 1 1 0
1 1 1 2 2 2 2 1 2 2 3 3 3 3 3 2 2 2 2 2 2 3 3 2 2 2 2 2 1 1 1 2 2 2 2 2 1 1 1 1 1 1 1
2 1 1 2 2 2 2 2 2 2 2 2 3 2 2 2 2 1 1 2 2 4 4 3 2 2 2 2 2 1 1 1 1 2 2 2 2 2 1 0 1 1 2
1 1 1 2 2 2 3 3 2 2 3 2 2 2 2 2 2 2 2 2 3 4 3 2 2 2 1 1 1 1 1 1 1 2 2 2 2 2 2 1 1 1 2
1 2 2 2 2 2 2 2 2 2 2 1 2 3 3 4 3 3 3 4 3 2 2 2 1 1 2 2 2 2 1 1 1 1 2 2 2 2 2 2 2 2 2
2 1 2 2 2 2 2 2 2 2 2 2 2 2 3 4 4 4 4 3 2 1 1 1 1 1 1 2 2 2 2 2 2 2 2 2 2 2 2 2 2 4 3
1 2 3 2 2 2 2 2 2 2 2 1 1 0 1 2 2 2 2 1 1 1 0 0 1 1 1 2 2 2 2 2 2 2 2 2 2 2 3 3 3 3 3
1 1 2 2 2 2 2 2 2 2 2 1 1 0 1 1 1 1 0 1 1 0 0 0 1 1 1 2 2 2 2 2 2 3 3 3 3 3 3 3 3 3 3
1 1 2 2 2 2 2 2 2 2 1 1 0 0 1 1 1 0 0 0 0 0 0 0 1 1 1 1 2 2 3 3 3 3 3 3 3 3 3 3 3 3 3
2 2 2 1 2 2 1 1 1 1 1 1 1 0 0 0 0 1 1 1 1 1 1 1 1 1 2 3 4 4 3 4 4 4 4 3 3 4 4 4 4 4 4
2 2 2 1 1 1 1 1 1 1 1 1 1 1 1 1 1 1 1 1 1 2 2 2 3 4 5 5 5 6 6 7 7 7 7 5 5 4 4 4 5 5 5
2 2 2 2 1 1 1 1 1 1 1 1 1 1 1 1 2 2 1 1 2 2 3 4 4 5 6 7 7 8 9 9 9 8 8 6 5 5 5 5 5 4 5
2 2 1 1 1 1 1 1 1 1 1 2 2 2 2 2 2 2 2 2 2 3 4 5 6 7 8 8 9 10 11 11 11 11 8 7 6 6 5 5 6 5 5
Wind_Direction
241 235 229 221 215 209 207 213 208 201 186 186 192 187 186 186 183 185 194 189 189 191 189 188 198 183 181 184 177 173 173 163 198 237 251 218 195 198 230 235 249 258 265
246 232 226 216 207 208 212 209 203 199 190 187 189 189 187 187 186 189 195 192 191 193 193 188 196 187 186 188 185 185 186 179 181 208 232 213 227 206 205 222 256 258 256
251 233 221 208 203 212 215 208 198 191 191 183 183 192 190 191 192 197 197 196 196 196 192 191 195 184 196 195 192 192 188 186 180 186 209 206 213 203 183 268 281 273 269
252 218 211 210 209 210 208 205 198 187 191 187 190 194 192 193 194 195 197 195 195 197 196 196 195 191 197 195 197 196 182 175 171 175 191 199 205 201 176 202 281 304 287
242 214 217 215 210 201 200 200 191 191 194 191 188 190 189 193 195 192 195 193 194 196 199 202 201 199 201 200 200 190 179 178 177 180 193 203 209 195 204 202 224 280 285
229 223 210 199 199 199 198 191 187 194 195 188 188 187 193 205 205 203 195 191 192 194 198 200 205 206 208 214 217 206 193 186 187 191 205 207 216 213 206 202 205 223 264
226 219 201 199 201 201 195 185 190 199 196 193 192 189 195 204 205 208 205 186 189 195 194 190 200 207 207 204 218 217 214 215 210 201 200 209 209 204 196 203 205 213 238
225 207 191 188 197 197 188 191 199 198 199 195 194 192 195 204 207 206 201 179 185 194 194 192 191 192 194 188 179 177 188 215 221 212 210 212 206 195 195 200 197 203 256
231 219 205 194 188 187 191 198 204 194 195 196 193 193 194 202 203 200 193 171 181 192 189 186 184 185 197 193 172 169 175 198 221 219 225 226 218 205 189 161 169 177 227
256 241 217 198 189 193 196 198 199 186 186 187 191 192 193 199 203 194 187 171 180 185 181 187 199 196 200 197 176 170 184 195 173 152 151 163 188 209 218 204 193 193 205
283 248 181 190 193 188 181 182 170 155 150 157 169 180 189 204 205 198 195 180 181 180 183 186 199 208 212 212 203 185 195 181 154 152 151 141 124 158 235 230 209 201 206
10 98 150 165 163 156 158 159 149 146 145 146 146 148 208 220 221 210 209 201 183 172 184 187 200 213 221 223 207 195 195 172 141 145 157 177 189 217 245 248 223 227 223
64 90 117 124 135 143 151 148 141 141 147 152 155 164 197 202 225 232 212 201 190 164 172 188 195 202 216 206 198 199 180 147 149 160 178 198 199 199 186 166 164 191 252
91 84 111 120 112 113 132 141 147 157 160 161 165 173 183 200 204 214 177 183 177 156 145 160 160 139 117 111 137 111 111 149 163 167 174 175 160 162 179 177 193 190 319
107 103 110 126 129 120 112 139 152 177 178 172 180 179 175 194 214 213 171 160 163 165 136 119 116 115 122 114 105 108 121 137 152 159 167 172 178 186 216 204 200 208 230
121 115 125 113 118 121 120 91 68 97 121 144 154 153 170 172 165 156 151 153 144 140 120 120 125 131 147 155 152 148 154 165 167 172 178 182 188 197 208 233 211 192 214
133 129 125 109 118 127 126 123 106 71 73 86 102 107 109 110 96 82 87 107 112 113 113 129 142 146 150 148 152 169 194 187 175 184 185 185 192 200 203 212 222 224 235
112 129 119 125 124 126 131 128 128 124 105 76 65 70 65 62 60 61 73 82 85 85 112 135 154 162 166 170 176 187 194 185 185 191 185 186 192 201 211 220 225 230 243
119 120 121 116 111 116 120 118 116 116 114 100 75 58 53 53 55 60 65 82 108 111 125 148 160 169 173 181 186 193 197 201 200 197 199 199 200 202 217 226 232 246 250
121 115 107 115 115 113 117 122 123 125 125 120 113 82 64 65 71 57 52 75 96 104 107 146 178 191 194 196 198 198 199 200 201 206 209 210 211 211 218 224 228 237 246
130 138 122 110 123 133 134 135 137 135 134 130 129 229 86 110 120 100 83 82 99 131 217 226 239 236 215 207 202 204 207 212 213 213 215 217 214 218 223 225 229 233 241
133 129 124 126 130 140 134 134 137 140 146 149 125 6 10 71 109 130 162 301 302 307 259 223 236 247 235 214 207 207 212 219 221 216 217 219 219 221 222 225 228 233 234
119 118 115 121 129 141 121 124 139 155 165 171 177 169 197 173 229 249 264 278 289 286 277 245 243 256 260 255 241 223 218 229 231 223 220 227 228 226 223 225 228 232 237
134 138 139 138 136 139 143 148 158 167 170 179 195 221 229 236 255 267 267 270 275 275 274 264 253 253 262 265 260 252 246 247 242 233 224 223 227 231 227 229 231 233 235
136 142 147 152 156 159 162 174 181 187 208 230 230 238 245 252 259 267 266 261 266 269 271 271 263 262 263 264 263 263 263 261 255 242 229 222 225 228 229 231 234 237 237
133 142 153 159 168 177 187 201 211 216 227 242 243 241 243 248 255 260 259 256 262 269 272 272 266 265 267 267 267 269 270 268 263 255 241 223 220 229 229 233 230 231 233
Height
1470 1471 1473 1474 1476 1477 1479 1481 1483 1484 1486 1488 1490 1491 1493 1494 1496 1498 1499 1501 1503 1504 1506 1508 1509 1511 1513 1515 1517 1518 1520 1521 1521 1522 1523 1524 1525 1525 1526 1526 1526 1526 1526
1466 1468 1469 1470 1471 1473 1475 1477 1479 1480 1482 1483 1485 1487 1488 1490 1491 1493 1495 1496 1497 1499 1501 1502 1504 1506 1508 1510 1511 1513 1514 1516 1517 1517 1518 1519 1521 1521 1521 1521 1521 1522 1522
1462 1464 1465 1466 1467 1469 1470 1472 1474 1476 1477 1479 1481 1482 1483 1485 1487 1488 1490 1491 1492 1494 1495 1497 1499 1501 1503 1504 1506 1508 1509 1511 1512 1513 1513 1515 1516 1516 1517 1517 1517 1518 1518
1459 1460 1461 1462 1464 1465 1467 1468 1470 1471 1473 1474 1476 1478 1479 1480 1482 1484 1485 1486 1488 1489 1491 1493 1495 1496 1498 1500 1501 1502 1504 1505 1507 1507 1508 1509 1510 1512 1512 1513 1513 1514 1514
1455 1456 1457 1458 1460 1462 1463 1465 1466 1468 1469 1470 1472 1473 1475 1476 1478 1479 1480 1481 1483 1485 1487 1488 1490 1491 1493 1494 1496 1497 1499 1500 1501 1502 1503 1504 1505 1506 1507 1508 1509 1509 1509
1451 1452 1453 1455 1456 1458 1459 1461 1462 1464 1465 1466 1467 1469 1470 1472 1473 1475 1476 1477 1478 1480 1482 1483 1485 1487 1488 1490 1491 1493 1494 1495 1496 1497 1498 1498 1500 1501 1503 1504 1504 1504 1504
1447 1448 1450 1451 1452 1454 1456 1457 1458 1459 1461 1462 1463 1465 1466 1468 1469 1471 1472 1473 1474 1475 1477 1479 1480 1482 1483 1484 1486 1487 1488 1490 1492 1493 1493 1494 1495 1497 1498 1499 1499 1499 1499
1443 1444 1446 1447 1449 1450 1452 1453 1454 1456 1457 1458 1459 1461 1462 1464 1465 1467 1468 1469 1470 1471 1472 1474 1476 1477 1479 1480 1481 1482 1483 1485 1487 1488 1489 1490 1491 1492 1493 1495 1495 1495 1496
1440 1441 1442 1444 1445 1446 1448 1449 1451 1452 1453 1455 1456 1457 1458 1460 1461 1462 1463 1464 1465 1467 1468 1470 1471 1473 1474 1476 1477 1477 1479 1480 1482 1483 1485 1486 1487 1488 1489 1490 1490 1490 1490
1438 1438 1439 1441 1442 1443 1444 1446 1448 1449 1450 1451 1452 1454 1455 1456 1457 1458 1459 1460 1461 1462 1464 1465 1467 1468 1470 1471 1473 1473 1474 1476 1477 1478 1480 1481 1483 1483 1484 1485 1485 1485 1485
1436 1436 1437 1438 1439 1440 1441 1443 1444 1446 1447 1448 1449 1451 1452 1453 1454 1455 1456 1457 1457 1458 1459 1461 1463 1464 1466 1467 1469 1470 1471 1472 1473 1474 1475 1476 1478 1479 1479 1480 1481 1482 1481
1434 1434 1435 1436 1436 1437 1438 1440 1441 1443 1444 1445 1446 1447 1449 1450 1451 1452 1453 1454 1455 1455 1456 1458 1459 1461 1462 1464 1465 1466 1467 1468 1469 1470 1471 1472 1473 1474 1475 1476 1476 1477 1477
1432 1432 1433 1434 1434 1435 1436 1437 1439 1440 1441 1442 1443 1444 1446 1447 1448 1449 1450 1451 1452 1453 1454 1455 1457 1458 1459 1461 1462 1463 1464 1464 1465 1466 1467 1468 1469 1470 1471 1472 1472 1473 1473
1430 1430 1431 1432 1432 1433 1434 1435 1436 1437 1438 1440 1441 1442 1443 1444 1445 1447 1447 1448 1449 1450 1451 1452 1454 1455 1456 1457 1459 1459 1460 1461 1462 1463 1463 1465 1465 1466 1467 1468 1468 1468 1468
1428 1429 1429 1430 1431 1431 1433 1434 1435 1436 1437 1438 1439 1440 1440 1442 1443 1445 1445 1446 1447 1448 1449 1450 1451 1452 1453 1454 1455 1456 1457 1458 1459 1460 1460 1461 1462 1463 1463 1464 1464 1464 1465
1427 1427 1428 1428 1429 1430 1431 1432 1434 1435 1436 1437 1438 1439 1439 1441 1441 1442 1443 1444 1445 1446 1447 1447 1448 1449 1450 1451 1452 1453 1454 1455 1456 1457 1457 1458 1459 1459 1460 1460 1461 1461 1461
1426 1426 1427 1427 1428 1428 1429 1430 1432 1434 1435 1436 1437 1437 1438 1439 1439 1440 1441 1442 1443 1444 1445 1445 1446 1447 1448 1448 1449 1450 1451 1452 1453 1453 1454 1455 1455 1456 1456 1456 1457 1457 1457
1425 1426 1426 1426 1427 1428 1428 1430 1431 1432 1433 1434 1436 1436 1437 1437 1438 1439 1439 1440 1440 1441 1442 1443 1443 1444 1445 1446 1446 1447 1448 1449 1449 1450 1451 1451 1452 1452 1452 1453 1453 1453 1453
1424 1425 1425 1426 1426 1427 1428 1429 1430 1431 1432 1433 1434 1435 1436 1436 1437 1437 1437 1438 1438 1439 1439 1440 1441 1442 1442 1443 1444 1444 1445 1445 1446 1447 1447 1448 1448 1448 1448 1449 1449 1449 1450
1424 1424 1425 1425 1426 1426 1427 1428 1429 1430 1431 1431 1432 1433 1434 1434 1434 1435 1435 1436 1436 1436 1437 1437 1438 1439 1439 1440 1440 1441 1441 1442 1443 1443 1444 1444 1444 1444 1444 1445 1445 1445 1445
1423 1424 1424 1425 1425 1426 1427 1428 1428 1429 1430 1430 1431 1432 1433 1433 1433 1433 1433 1434 1434 1434 1434 1435 1435 1436 1436 1436 1437 1437 1438 1438 1439 1439 1440 1440 1440 1440 1440 1441 1441 1441 1441
1423 1423 1423 1424 1425 1425 1426 1427 1427 1428 1428 1429 1430 1431 1431 1431 1431 1431 1432 1432 1432 1432 1432 1432 1432 1432 1433 1433 1434 1434 1434 1434 1435 1435 1435 1436 1436 1436 1436 1436 1436 1437 1437
1422 1422 1423 1423 1424 1425 1425 1426 1426 1427 1427 1428 1428 1428 1429 1429 1429 1429 1429 1429 1429 1429 1429 1429 1429 1429 1430 1430 1430 1430 1430 1430 1431 1431 1431 1431 1431 1431 1432 1432 1432 1432 1432
1421 1422 1422 1423 1423 1423 1424 1424 1425 1425 1425 1426 1426 1426 1427 1427 1427 1427 1427 1427 1426 1426 1426 1426 1426 1426 1426 1426 1426 1426 1426 1426 1426 1426 1426 1427 1427 1427 1427 1427 1427 1427 1427
1421 1421 1421 1422 1422 1422 1422 1423 1423 1423 1424 1424 1424 1424 1424 1424 1424 1424 1424 1423 1423 1423 1423 1423 1422 1422 1422 1422 1422 1422 1422 1422 1422 1422 1422 1422 1422 1422 1422 1422 1422 1422 1423
1420 1420 1420 1421 1421 1421 1421 1421 1421 1422 1422 1422 1422 1421 1421 1421 1421 1421 1420 1420 1419 1419 1419 1419 1418 1418 1417 1417 1417 1417 1417 1417 1417 1417 1417 1416 1416 1416 1417 1417 1417 1417 1417